Dayton Wright, OH

4:40 PM EDT on June 26, 2017 (GMT -0400)
Dayton-Wright Brothers

Weather History for KMGY - June, 2013

Change the Weather History Date:

Sunday, June 16, 2013

  Actual Average (KFFO) Record (KFFO)
Temperature  
Mean Temperature 72 °F -  
Max Temperature 77 °F 78 °F 89 °F (2012)
Min Temperature 66 °F 58 °F 50 °F (1999)
Cooling Degree Days 6    
Growing Degree Days 22 (Base 50)    
Moisture  
Dew Point 64 °F    
Average Humidity 76    
Maximum Humidity 87    
Minimum Humidity 64    
Precipitation  
Precipitation 0.05 in - - ()
Sea Level Pressure  
Sea Level Pressure 29.97 in    
Wind  
Wind Speed 7 mph (SW)    
Max Wind Speed 13 mph    
Max Gust Speed 22 mph    
Visibility 10 miles    
Events Rain , Thunderstorm    
Averages and records for this station are not official NWS values.
T = Trace of Precipitation, MM = Missing Value Source: NWS Daily Summary

Daily Weather History Graph

Daily Weather History Graph

Search for Another Location

Airport or City:

Trip Planner

Search our weather history database for the weather conditions in past years. The results will help you decide how hot, cold, wet, or windy it might be!

Date:

Astronomy

Jun. 16, 2013 Rise Set
Actual Time 6:08 AM EDT 9:06 PM EDT
Civil Twilight 5:36 AM EDT 9:39 PM EDT
Nautical Twilight 4:55 AM EDT 10:20 PM EDT
Astronomical Twilight 4:07 AM EDT 11:08 PM EDT
Moon 1:42 PM EDT (6/16) 1:12 AM EDT (6/16)
Length of Visible Light 16h 02m
Length of Day
14h 57m
Waxing Crescent, 49% of the Moon is Illuminated
Jun 16
Waxing Crescent
Jun 16
First Quarter
Jun 23
Full
Jun 30
Last Quarter
Jul 8
New

Hourly Weather History & Observations

Time (EDT) Temp. Dew Point Humidity Pressure Visibility Wind Dir Wind Speed Gust Speed Precip Events Conditions
12:53 AM 69.1 °F 62.1 °F 78% 29.96 in 10.0 mi South 5.8 mph - N/A   Clear
1:53 AM 66.9 °F 62.1 °F 84% 29.96 in 10.0 mi South 6.9 mph - N/A   Clear
2:53 AM 69.1 °F 62.1 °F 78% 29.95 in 10.0 mi SSW 6.9 mph - N/A   Overcast
3:53 AM 73.0 °F 61.0 °F 66% 29.94 in 10.0 mi SW 8.1 mph - N/A   Overcast
4:53 AM 73.0 °F 61.0 °F 66% 29.95 in 10.0 mi WSW 9.2 mph - N/A   Scattered Clouds
5:53 AM 69.1 °F 63.0 °F 81% 29.94 in 10.0 mi SSW 4.6 mph - N/A   Mostly Cloudy
6:53 AM 70.0 °F 63.0 °F 78% 29.96 in 10.0 mi WSW 3.5 mph - 0.00 in   Mostly Cloudy
7:14 AM 69.8 °F 62.6 °F 78% 30.00 in 8.0 mi SW 5.8 mph - 0.00 in Rain , Thunderstorm Light Rain
7:29 AM 69.8 °F 64.4 °F 83% 29.99 in 10.0 mi SW 6.9 mph - 0.00 in Rain Light Rain
7:53 AM 69.1 °F 64.0 °F 84% 29.98 in 10.0 mi SW 6.9 mph - 0.00 in   Overcast
8:53 AM 69.1 °F 64.0 °F 84% 29.99 in 9.0 mi SW 6.9 mph - 0.03 in Rain Light Rain
9:53 AM 69.1 °F 64.9 °F 87% 30.00 in 10.0 mi SW 8.1 mph - 0.02 in   Mostly Cloudy
10:53 AM 71.1 °F 64.0 °F 78% 30.00 in 10.0 mi WSW 8.1 mph - N/A   Partly Cloudy
11:53 AM 72.0 °F 64.0 °F 76% 29.99 in 10.0 mi WSW 6.9 mph 16.1 mph N/A   Overcast
12:53 PM 73.0 °F 63.0 °F 71% 29.99 in 10.0 mi West 12.7 mph 21.9 mph N/A   Overcast
1:53 PM 72.0 °F 64.0 °F 76% 29.99 in 10.0 mi West 10.4 mph - 0.00 in   Overcast
2:53 PM 72.0 °F 64.0 °F 76% 29.98 in 10.0 mi WSW 10.4 mph - 0.00 in   Overcast
3:53 PM 75.0 °F 64.9 °F 71% 29.97 in 10.0 mi West 8.1 mph - N/A   Mostly Cloudy
4:13 PM 75.2 °F 66.2 °F 73% 29.99 in 10.0 mi WSW 11.5 mph - N/A   Mostly Cloudy
4:35 PM 75.2 °F 64.4 °F 69% 29.98 in 10.0 mi WSW 9.2 mph - N/A   Mostly Cloudy
4:53 PM 77.0 °F 64.0 °F 64% 29.95 in 10.0 mi West 12.7 mph - N/A   Mostly Cloudy
5:53 PM 75.0 °F 64.0 °F 69% 29.96 in 10.0 mi SW 10.4 mph 18.4 mph N/A   Clear
6:53 PM 75.0 °F 64.0 °F 69% 29.95 in 10.0 mi WSW 12.7 mph - N/A   Partly Cloudy
7:53 PM 75.0 °F 64.9 °F 71% 29.95 in 10.0 mi WSW 5.8 mph - N/A   Clear
8:53 PM 73.0 °F 64.9 °F 76% 29.94 in 10.0 mi WSW 4.6 mph - N/A   Clear
9:53 PM 71.1 °F 64.9 °F 81% 29.95 in 10.0 mi SSW 4.6 mph - N/A   Clear
10:53 PM 70.0 °F 64.9 °F 84% 29.96 in 10.0 mi SW 4.6 mph - N/A   Clear
11:53 PM 68.0 °F 64.0 °F 87% 29.96 in 10.0 mi South 3.5 mph - N/A   Partly Cloudy